Hourly Data Report for October 05, 2014

All times are specified in Local Standard Time (LST). Add 1 hour to adjust for Daylight Saving Time where and when it is observed.

CLYDE RIVER A
NUNAVUT

70°29'09.000" N
68°31'01.000" W
26.50 m
2400804
71090
YCY

Download Data

Hourly Data (October 2014)
Hourly Data Report for October 5, 2014
Temp Definition
°C
Dew Point Temp Definition
°C
Rel Hum Definition
%
Wind Dir Definition
10's deg

Wind Spd Definition
km/h
Visibility Definition
km
Stn Press Definition
kPa
Hmdx Definition


Wind Chill Definition


Weather Definition


TIME
00:00 Legend Double Dagger -9.3 -12.0 81 28 13 16.1 101.88   -15 LegendNANA
01:00 Legend Double Dagger -7.5 -11.2 75 27 8 16.1 101.93   -12 LegendNANA
02:00 Legend Double Dagger -7.9 -11.5 76 26 9 16.1 101.96   -12 LegendNANA
03:00 Legend Double Dagger -8.4 -11.7 78 27 8 16.1 102.02   -13 LegendNANA
04:00 Legend Double Dagger -8.8 -11.8 79 26 5 16.1 102.05   -12 LegendNANA
05:00 Legend Double Dagger -8.9 -12.2 77 27 8 16.1 102.10   -13 LegendNANA
06:00 Legend Double Dagger -9.5 -12.3 80 27 8 16.1 102.14   -14 LegendNANA
07:00 Legend Double Dagger -9.1 -12.1 79 28 9 16.1 102.17   -14 LegendNANA
08:00 Legend Double Dagger -7.9 -11.0 78 25 8 16.1 102.25   -12 LegendNANA
09:00 Legend Double Dagger -7.1 -10.2 79 28 11 16.1 102.25   -12 LegendNANA
10:00 Legend Double Dagger -5.9 -9.0 79 27 9 16.1 102.29   -10 LegendNANA
11:00 Legend Double Dagger -5.9 -9.1 78 24 9 16.1 102.31   -10 LegendNANA
12:00 Legend Double Dagger -4.8 -7.9 79 29 11 16.1 102.37   -9 LegendNANA
13:00 Legend Double Dagger -3.8 -7.5 76 28 13 16.1 102.43   -9 LegendNANA
14:00 Legend Double Dagger -4.2 -7.9 75 27 13 16.1 102.46   -9 LegendNANA
15:00 Legend Double Dagger -5.1 -7.9 81 26 8 16.1 102.49   -9 LegendNANA
16:00 Legend Double Dagger -4.9 -7.1 85 32 18 16.1 102.50   -11 LegendNANA
17:00 Legend Double Dagger -4.4 -6.9 83 31 18 16.1 102.56   -10 LegendNANA
18:00 Legend Double Dagger -4.0 -6.5 83 31 21 16.1 102.59   -10 LegendNANA
19:00 Legend Double Dagger -3.8 -6.4 82 31 22 16.1 102.62   -10 LegendNANA
20:00 Legend Double Dagger -3.3 -5.9 82 31 21 16.1 102.63   -10 LegendNANA
21:00 Legend Double Dagger -3.3 -6.1 81 30 15 16.1 102.64   -8 LegendNANA
22:00 Legend Double Dagger -4.1 -6.5 83 30 17 16.1 102.65   -10 LegendNANA
23:00 Legend Double Dagger -3.2 -6.2 80 31 17 16.1 102.66   -9 LegendNANA

Notes on Data Quality.

Legend

  • E = Estimated
  • M = Missing
  • NA = Not Available
  • ‡ = Partner data that is not subject to review by the National Climate Archives
Date modified: